This demonstration page uses our WeatherBlox Daily Observations layout. Learn more.

Left ArrowRight Arrow

Hourly Observations for April 6, 2017

Temp ( °F °C ) Dew Point ( °F °C ) Humidity (%) Winds ( mph kmh ) Pressure ( in mb ) Visibility ( mi km ) Precip ( " mm )
12:53 am 00:53 Cloudy with Light Rain 61 16.1 42 5.6 50 50 SSW 12 19 29.91 1013 10 16 0.00 0.03
1:25 am 01:25 Cloudy with Light Rain 57 13.9 46 7.8 67 67 S 8 13 29.91 1013 10 16 0.04 1.02
1:53 am 01:53 Cloudy with Rain 55 12.8 49 9.4 80 80 SW 5 7 29.94 1014 6 10 0.07 1.78
2:53 am 02:53 Cloudy with Light Rain 52 11.1 47 8.3 83 83 SW 12 19 29.95 1014 7 11 0.10 2.54
3:53 am 03:53 Cloudy with Rain 50 10 48 8.9 93 93 W 7 11 29.93 1014 4 6 0.13 3.30
4:53 am 04:53 Cloudy with Light Rain 50 10 49 9.4 96 96 NE 7 11 29.91 1013 9 14 0.11 2.79
5:53 am 05:53 Cloudy with Rain 50 10 49 9.4 96 96 N 7 11 29.89 1012 5 8 0.11 2.79
6:32 am 06:32 Cloudy with Rain 50 10 48 9 94 94 N 7 11 29.94 1014 5 8 0.00 0.00
6:53 am 06:53 Cloudy with Rain 50 10 49 9.4 96 96 NE 3 6 29.91 1013 5 8 0.12 3.05
7:53 am 07:53 Cloudy with Light Rain 51 10.6 49 9.4 92 92 Calm 29.91 1013 9 14 0.09 2.29
8:35 am 08:35 Cloudy 51 10.6 49 9.4 92 92 SE 5 7 29.94 1014 10 16 0.01 0.25
8:53 am 08:53 Cloudy with Light Rain 51 10.6 50 10 96 96 SE 3 6 29.92 1013 9 14 0.02 0.51
9:11 am 09:11 Cloudy with Light Rain 52 11 48 9 88 88 SSE 5 7 29.94 1014 9 14 0.00 0.00
9:22 am 09:22 Cloudy with Light Rain 52 11 48 9 88 88 S 10 17 29.94 1014 7 11 0.00 0.00
9:50 am 09:50 Cloudy with Light Rain 52 11 48 9 88 88 S 12 19 29.94 1014 6 10 0.00 0.00
9:53 am 09:53 Cloudy with Light Rain 51 10.6 49 9.4 92 92 SSE 12 19 29.93 1013 6 10 0.05 1.27
10:32 am 10:32 Cloudy with Light Rain 52 11 48 9 88 88 S 7 11 29.94 1014 10 16 0.00 0.00
10:35 am 10:35 Cloudy 51 10.6 49 9.4 92 92 S 9 15 29.94 1014 10 16 0.04 1.02
10:53 am 10:53 Cloudy 51 10.6 49 9.4 92 92 S 8 13 29.93 1014 10 16 0.04 1.02
11:13 am 11:13 Cloudy 52 11.1 49 9.4 89 89 SW 6 9 29.94 1014 10 16 0.00 0.00
11:30 am 11:30 Cloudy 52 11 48 9 88 88 W 6 9 29.94 1014 9 14 0.00 0.00
11:53 am 11:53 Cloudy 52 11.1 49 9.4 89 89 WNW 5 7 29.92 1013 10 16 0.00 0.00
12:09 pm 12:09 Cloudy 52 11.1 50 10 93 93 NW 5 7 29.94 1014 10 16 0.00 0.00
12:28 pm 12:28 Cloudy 52 11 48 9 88 88 N 5 7 29.94 1014 10 16 0.00 0.00
12:35 pm 12:35 Cloudy 51 10.6 48 8.9 89 89 NW 5 7 29.94 1014 10 16 0.00 0.00
12:53 pm 12:53 Cloudy 51 10.6 49 9.4 92 92 WNW 3 6 29.91 1013 10 16 0.00 0.00
1:51 pm 13:51 Cloudy with Light Rain 52 11 50 10 94 94 N 7 11 29.91 1013 10 16 0.02 0.51
1:53 pm 13:53 Cloudy with Light Rain 52 11.1 50 10 93 93 N 8 13 29.87 1012 10 16 0.02 0.51
2:53 pm 14:53 Cloudy with Light Rain 53 11.7 50 10 89 89 NW 5 7 29.84 1010 8 13 0.01 0.25
3:53 pm 15:53 Cloudy with Light Rain 52 11.1 49 9.4 89 89 VRB 3 6 29.84 1011 6 10 0.03 0.76
4:36 pm 16:36 Cloudy with Light Rain 52 11 48 9 88 88 Calm 29.85 1011 9 14 0.00 0.00
4:53 pm 16:53 Cloudy with Light Rain 51 10.6 48 8.9 89 89 WNW 3 6 29.79 1009 9 14 0.02 0.51
5:45 pm 17:45 Cloudy with Rain 50 10 49 9.4 96 96 W 5 7 29.80 1009 3 4 0.05 1.27
5:53 pm 17:53 Cloudy with Rain 50 10 49 9.4 96 96 W 7 11 29.76 1008 3 4 0.07 1.78
6:32 pm 18:32 Mostly Cloudy with Light Rain 48 9 46 8 94 94 SSW 5 7 29.77 1008 3 4 0.00 0.00
6:53 pm 18:53 Cloudy with Rain 49 9.4 48 8.9 97 97 SW 3 6 29.70 1006 3 4 0.17 4.32
7:53 pm 19:53 Cloudy with Rain 49 9.4 48 8.9 97 97 Calm 29.65 1004 3 4 0.26 6.60
8:18 pm 20:18 Cloudy with Rain 48 9 48 9 100 100 NNW 7 11 29.68 1005 3 5 0.00 0.00
8:35 pm 20:35 Mostly Cloudy with Rain 48 8.9 48 8.9 100 100 W 6 9 29.65 1004 3 4 0.24 6.10
8:40 pm 20:40 Cloudy with Rain 48 9 46 8 94 94 VRB 7 11 29.65 1004 3 5 0.00 0.00
8:53 pm 20:53 Cloudy with Rain 49 9.4 48 8.9 97 97 WSW 8 13 29.61 1003 4 6 0.32 8.13
8:58 pm 20:58 Cloudy with Rain 48 9 48 9 100 100 VRB 7 11 29.65 1004 4 6 0.00 0.00
9:53 pm 21:53 Cloudy 50 10 49 9.4 96 96 SSE 15 24 29.57 1001 10 16 0.21 5.33
10:53 pm 22:53 Cloudy 52 11.1 49 9.4 89 89 S 33 54 29.55 1001 10 16 0.00 0.03
11:18 pm 23:18 Cloudy with Light Rain 52 11 48 9 88 88 S 30 48 29.56 1001 10 16 0.00 0.00
11:53 pm 23:53 Cloudy with Light Rain 51 10.6 48 8.9 89 89 S 32 52 29.54 1001 10 16 0.00 0.03

Powered by AerisWeather